Miscellaneous Local Product
Issued by NWS Hastings, NE

Home | Current Version | Previous Version | Text Only | Print | Product List | Glossary On
Versions: 1 2 3 4 5 6 7 8 9 10 11 12 13 14 15 16 17 18 19 20 21 22 23 24 25 26 27 28 29 30 31 32 33 34 35 36 37 38 39 40 41 42 43 44 45 46 47 48 49 50
000
AXUS43 KGID 302002
MISGRI

GID CWA HOURLY WEATHER ROUNDUP
NATIONAL WEATHER SERVICE HASTINGS NE
300 PM CDT SUN AUG 30 2015

NOTE: "FAIR" INDICATES FEW OR NO CLOUDS BELOW 12,000 FEET WITH NO
SIGNIFICANT WEATHER AND/OR OBSTRUCTIONS TO VISIBILITY.

...SOUTH CENTRAL NEBRASKA...

CITY           SKY/WX    TMP DP  RH WIND       PRES   REMARKS
GRAND ISLAND   SUNNY     79  65  62 SE15G21   30.00F
HASTINGS       SUNNY     79  63  57 S14       30.01F
KEARNEY        SUNNY     84  63  48 S14       29.99S
ORD            SUNNY     88  56  33 S14G22    29.94F
YORK           SUNNY     73  66  78 S13       30.02F
AURORA         SUNNY     75  66  74 S14       30.01F
LEXINGTON      SUNNY     89  56  32 S16       29.99S
HOLDREGE       SUNNY     83  59  43 S12G17    30.00S
HEBRON         SUNNY     76  63  62 S7        30.02F

...NEBRASKA PANHANDLE...

CITY           SKY/WX    TMP DP  RH WIND       PRES   REMARKS
CHADRON        SUNNY    101  43  13 SW9       29.81F HX  96
ALLIANCE       SUNNY     97  43  15 S13       29.91F HX  93
SCOTTSBLUFF    SUNNY     95  51  22 E6        29.91F HX  92
SIDNEY         SUNNY     96  41  15 S8G18     29.98F HX  92

...WESTERN AND NORTH CENTRAL NEBRASKA...

CITY           SKY/WX    TMP DP  RH WIND       PRES   REMARKS
VALENTINE      CLOUDY    96  44  16 S23G35    29.85F HX  92
AINSWORTH      SUNNY     92  46  20 S24G31    29.90F
ONEILL         SUNNY     87  61  40 S14       29.93F
BROKEN BOW     SUNNY     89  59  36 S15G24    29.96F
IMPERIAL       SUNNY     95  40  14 S21G35    29.97F HX  91
NORTH PLATTE   SUNNY     92  46  20 S14G23    29.95F
MCCOOK         SUNNY     96  41  15 S21       29.97F HX  92

...EASTERN NEBRASKA...

CITY           SKY/WX    TMP DP  RH WIND       PRES   REMARKS
NORFOLK        SUNNY     76  66  71 SE13      29.98F
TEKAMAH        CLOUDY    73  66  78 S10G18    30.02F
COLUMBUS       SUNNY     75  64  69 S8        30.00F
ALBION         SUNNY     78  66  67 SE10G18   29.98F
OMAHA EPPLEY   CLOUDY    74  65  73 S10       30.02F
OFFUTT AFB     PTSUNNY   75  65  73 S9        30.02F
MILLARD        CLOUDY    73  66  77 S8        30.03F
LINCOLN        PTSUNNY   76  66  71 S13       30.03F
NEBRASKA CITY  CLOUDY    76  64  67 S8        30.04F
BEATRICE       MOSUNNY   74  65  73 S8        30.03F
FALLS CITY     MOSUNNY   78  69  73 CALM      30.02F

...NORTHERN KANSAS...

CITY           SKY/WX    TMP DP  RH WIND       PRES   REMARKS
GOODLAND       SUNNY     91  39  16 S20G26    30.02F HAZE
HILL CITY      SUNNY     94  46  19 S10G24    29.99F HX  90
NORTON         CLEAR     90  45  20 SE13      29.98F
PHILLIPSBURG   SUNNY     88  61  40 SE14      29.99F
SMITH CENTER   SUNNY     81  61  50 SE16      30.01F
HAYS           SUNNY     88  55  33 SE14      30.00F
RUSSELL        SUNNY     84  58  40 SE8G16    30.00F
CONCORDIA      SUNNY     76  65  68 SE9       30.03F
SALINA         SUNNY     80  65  59 SE8       30.01F
TOPEKA         SUNNY     82  69  64 CALM      30.01F



USA.gov is the U.S. government's official web portal to all federal, state and local government web resources and services.